Weather in Konoplyanoe

Ukraine / Odesa District     47°03′02″N   30°28′41″E
temp.,
°C
wind,
m/s
gust,
m/s
humid.,
%
clouds,
%
prec.,
mm/h
press.,
hPa
HPBL,
m
20 january, thu
thu2023:00−2w36785 0.0 1023156
02:00−2sw348015 0.0 102298
05:00−2ssw3770100 0.0 1019181
08:00−2s4106754 0.0 1018240
11:00+2ssw71147100 0.0 1016513
14:00+4ssw79480 0.0 1012757
17:000sw47704 0.0 1011100
20:00−1w366682 0.0 101097
21 january, fri
fri2123:00+1sw2258100 0.0 100918
02:00−1wsw41172100 0.0 1009218
05:00−1wnw61476100 0.0 1011638
08:00−2wnw613611 0.0 1014787
11:00+1wnw912434 0.0 10151380
14:00+1wnw811350 0.0 10141611
17:00−1w59450 0.0 1014219
20:00−2w410514 0.0 1014318
22 january, sat
sat2223:00−3w410535 0.0 1014370
02:00−2w511575 0.0 1014557
05:00−3w6115612 0.0 1013562
08:00−3w6108496 0.1 1013600
11:00−1wnw6866100 0.0 10141016
14:000wnw7858100 0.1 10131317
17:00−2wnw47696 0.0 1015216
20:00−3w497727 0.0 1015382
23 january, sun
sun2323:00−3wnw598357 0.0 1016413
02:00−4nw48886 0.0 1017365
05:00−4nnw488842 0.0 1018346
08:00−5nnw478779 0.0 1020424
11:00−3nnw5668100 0.0 1020836
14:00−2n4561100 0.1 1020915
17:00−3n366772 0.1 1021277
20:00−4nne467299 0.1 1022563
24 january, mon
mon2423:00−5n36786 0.0 1023287
02:00−5n47825 0.0 1023371
05:00−6n488731 0.0 1025342
08:00−7nnw588637 0.0 1026403
11:00−4n686534 0.0 1026603
14:00−3n6857100 0.0 1026799
17:00−4nnw6963100 0.0 1027730
20:00−4nnw6968100 0.0 1028628